Theta_e
352 359 366 363 362 361 358 358 359 358 360 362 362 362 362 361 360 361 361 362 362 362 361 360 357 357 359 360 356 357 356 357 356 355 354 353 351 349 346 345 344 341 344
355 358 365 363 362 361 359 358 359 358 359 360 360 361 362 362 362 362 362 363 363 361 360 358 356 356 357 359 359 356 355 355 356 354 353 352 351 349 347 345 344 341 343
353 358 362 363 362 361 359 358 358 358 359 359 360 360 361 361 362 363 363 363 362 359 358 357 355 355 356 357 359 360 357 357 355 354 352 348 347 350 347 345 344 344 342
354 356 359 363 363 360 359 358 358 358 358 358 358 360 360 360 361 360 361 362 361 359 358 355 354 354 355 356 357 358 360 357 355 353 348 344 343 351 348 347 346 344 342
353 355 360 364 363 362 360 358 358 358 358 357 357 358 360 360 360 360 360 360 359 358 358 358 356 356 355 356 358 359 360 359 358 355 348 342 342 345 351 348 347 345 343
352 356 362 363 363 362 360 359 358 357 357 357 357 358 359 360 360 359 360 361 360 358 358 358 358 357 355 355 356 357 357 358 359 357 355 349 345 347 350 350 349 347 344
352 356 358 362 363 362 361 359 359 358 359 358 357 358 359 359 359 359 360 360 360 360 359 360 360 358 355 355 355 355 355 354 351 351 353 356 356 352 353 353 352 349 346
350 352 355 361 361 361 361 360 360 359 358 358 359 359 359 359 359 358 360 360 360 360 361 361 360 359 356 354 354 354 354 352 348 346 345 345 347 352 357 356 355 353 349
336 336 337 338 347 358 360 360 360 359 358 358 358 359 359 359 359 359 359 359 360 360 360 360 360 359 357 355 354 353 353 351 345 342 341 342 344 349 352 358 357 355 353
330 331 331 333 335 339 350 357 360 360 360 359 359 359 359 359 359 359 357 357 359 359 359 359 359 358 357 356 355 354 353 350 344 339 339 339 344 346 350 355 359 357 354
328 327 330 331 332 337 347 349 350 351 352 353 355 356 356 354 353 354 355 357 358 358 359 359 358 357 357 357 356 356 354 348 341 339 337 340 344 346 348 352 357 358 356
322 325 326 328 328 330 333 334 335 338 337 339 341 344 348 350 350 353 355 356 357 358 359 358 358 357 357 353 351 354 352 349 341 340 337 340 342 344 347 351 356 359 357
320 323 325 325 326 325 325 326 329 331 332 333 334 336 340 341 343 345 346 347 348 349 351 353 353 354 354 352 350 348 346 346 345 342 341 343 344 344 346 350 353 359 358
319 321 324 324 323 323 323 324 326 327 328 329 330 332 335 337 339 340 341 342 342 342 343 348 349 350 350 351 350 347 345 343 342 340 340 343 345 345 345 350 352 357 358
318 320 322 324 323 323 322 323 324 325 325 327 328 329 330 330 331 335 335 336 337 338 339 339 341 345 346 348 349 348 346 344 343 342 339 341 345 346 347 349 353 354 359
319 320 321 322 323 323 321 322 323 324 325 326 325 326 328 328 329 331 331 332 333 333 333 332 334 338 342 345 347 347 347 347 346 343 340 338 343 345 347 349 352 353 358
318 320 320 321 323 321 321 322 323 324 325 323 324 325 327 328 328 327 328 329 332 333 334 335 337 340 340 343 344 345 346 345 345 344 342 339 338 343 347 349 351 353 357
317 318 319 324 321 320 320 321 323 324 323 323 323 323 325 327 329 325 325 327 329 329 330 332 336 336 338 341 341 343 344 344 344 344 343 341 339 338 341 349 352 355 357
317 316 317 320 318 320 320 320 321 323 321 323 322 321 322 324 326 324 323 325 326 326 327 328 330 334 335 336 338 343 343 342 343 343 343 342 341 340 340 345 352 354 355
317 316 316 317 318 319 320 320 320 320 321 321 320 320 322 323 324 323 322 323 323 323 322 324 326 329 333 336 336 338 338 339 341 340 340 341 341 339 340 346 347 350 352
317 316 316 316 317 318 319 317 317 317 318 320 319 320 321 322 323 322 321 321 321 319 319 322 324 324 327 334 333 334 336 339 339 340 341 341 340 341 340 343 345 346 349
315 316 315 316 316 316 318 317 319 319 320 319 319 319 320 321 321 321 320 318 318 318 318 320 321 321 325 332 328 327 324 329 333 336 338 337 339 340 339 339 342 345 347
314 314 314 314 315 316 318 318 318 317 315 313 314 316 319 319 317 315 314 315 317 317 316 317 319 321 319 324 330 328 321 321 324 328 331 332 335 335 338 339 339 341 344
311 312 312 313 315 316 316 316 314 312 309 312 312 314 314 314 313 312 312 313 314 315 315 317 319 321 320 317 322 329 331 328 324 322 329 333 336 337 339 341 343 342 343
308 308 311 313 313 313 313 312 311 309 309 309 309 308 308 309 309 310 312 311 310 312 315 315 315 316 317 315 315 317 323 327 327 324 322 325 330 334 335 338 339 341 341
309 312 311 311 310 311 311 310 308 306 305 304 304 304 304 305 306 307 308 308 310 310 310 311 313 313 314 314 314 316 316 319 323 321 323 326 327 332 333 333 333 334 335
Wind_Speed
2 5 11 11 10 10 9 12 13 12 12 13 13 14 15 14 13 12 11 11 10 9 9 7 6 7 7 7 8 7 7 8 10 10 11 10 9 9 8 8 9 7 9
4 5 11 11 11 10 11 11 11 12 11 11 11 11 11 11 12 11 9 9 8 10 9 8 7 7 7 7 7 7 7 6 7 8 9 9 9 9 9 9 8 7 8
6 6 3 10 9 10 10 10 11 11 10 10 10 10 10 10 9 8 7 6 7 7 7 7 7 6 6 6 7 7 7 7 6 7 8 4 5 9 9 9 9 9 8
4 6 4 7 9 9 9 9 10 10 9 9 9 8 8 8 8 8 6 6 7 7 6 6 6 6 7 7 7 8 8 8 8 8 5 5 5 9 9 9 9 9 9
6 5 5 7 6 6 7 9 7 9 10 10 10 9 9 9 8 8 7 7 7 7 6 6 7 6 6 7 6 7 8 10 10 9 6 5 4 6 9 9 9 9 9
6 7 8 8 6 4 4 5 5 5 6 8 9 9 9 9 9 9 10 10 10 9 9 9 8 8 8 8 8 7 8 9 10 8 6 7 7 7 11 12 11 11 10
7 6 7 10 8 5 3 2 3 2 1 3 5 7 8 9 9 9 9 9 9 9 10 10 9 9 9 9 10 10 10 11 9 7 7 7 9 11 13 14 14 13 13
9 7 6 8 6 6 5 4 2 1 2 4 5 6 7 7 7 8 9 10 11 11 11 11 11 10 10 10 10 10 10 12 10 8 9 8 10 12 15 16 15 15 15
10 10 8 7 7 7 6 5 5 3 3 5 5 7 8 9 9 10 10 11 11 11 12 12 12 12 11 11 12 11 11 13 9 6 8 6 12 13 15 15 17 17 16
10 9 7 6 7 6 5 9 7 6 5 6 6 7 8 10 10 11 11 11 13 13 13 13 13 13 12 12 12 13 13 15 10 7 7 7 14 15 15 14 17 18 18
10 8 5 9 11 9 8 8 10 11 12 11 8 9 8 4 5 8 10 14 14 14 14 15 15 15 14 14 15 15 16 6 7 6 5 13 16 17 17 16 17 20 19
6 6 7 8 8 6 6 6 6 5 4 4 5 5 4 5 5 9 11 15 15 15 15 16 17 17 15 8 7 14 7 8 6 7 6 15 17 18 19 17 17 20 21
3 4 6 6 5 6 5 3 2 2 3 4 6 5 4 4 3 4 4 4 5 10 6 8 8 7 10 8 8 7 9 9 6 6 10 16 16 19 19 18 18 20 22
4 4 3 5 6 6 4 4 4 3 3 3 4 5 4 3 3 3 3 5 5 4 6 6 5 8 9 10 11 11 10 8 6 6 9 18 17 19 20 18 18 20 22
5 4 4 4 5 4 5 4 4 4 3 3 3 4 4 5 5 4 4 4 5 5 5 6 8 8 9 10 10 11 10 9 10 7 6 17 18 19 20 20 19 20 22
6 3 2 3 3 3 3 2 2 3 3 3 4 4 5 4 3 3 4 4 4 4 5 6 7 7 7 8 9 9 11 8 9 10 8 8 16 18 19 20 19 20 22
5 6 6 4 3 3 1 1 2 2 3 3 3 4 5 4 4 4 4 4 4 5 6 6 7 7 7 7 10 9 8 11 10 11 9 8 8 15 18 20 19 20 20
6 8 7 5 7 6 4 3 3 3 3 4 4 3 4 4 4 4 3 4 4 4 4 5 6 8 7 7 8 8 7 7 10 10 8 7 7 7 10 17 18 18 19
7 7 6 7 7 7 5 4 4 4 3 4 3 3 5 5 4 3 3 5 5 4 4 5 6 6 7 8 9 9 8 8 9 9 9 9 10 8 6 11 13 15 18
7 5 6 5 6 5 3 2 2 3 4 4 4 4 5 4 5 4 4 5 4 4 5 5 6 6 7 7 8 9 8 8 7 7 9 9 8 8 8 8 7 8 16
7 7 8 6 7 4 3 2 2 3 3 4 4 5 5 4 5 5 5 6 7 6 7 7 6 9 6 4 5 5 7 10 9 9 8 8 8 9 7 7 6 6 7
8 9 8 8 7 4 2 3 3 2 3 3 4 5 5 5 5 6 6 8 9 8 8 8 6 6 6 4 4 2 5 4 5 7 6 7 9 5 6 7 8 8 8
8 8 7 7 7 4 3 2 3 2 3 3 4 4 4 9 11 11 11 9 10 7 8 9 7 9 8 5 7 5 3 5 1 1 6 5 6 4 4 5 7 8 8
6 5 5 3 2 2 4 1 2 2 3 3 4 7 9 11 12 15 14 12 11 9 10 8 8 8 4 7 5 7 10 4 4 3 2 3 4 6 5 4 4 5 6
4 5 4 5 7 5 5 4 3 5 4 5 8 12 12 12 12 13 13 14 14 10 11 10 9 9 7 6 6 6 6 5 7 8 8 4 3 4 4 4 4 3 4
6 6 6 7 5 6 6 7 6 7 11 12 13 12 11 10 10 12 13 12 13 13 12 10 10 9 7 7 7 9 8 7 3 6 7 7 7 4 4 4 5 4 3
Wind_Direction
144 131 107 104 96 92 95 100 95 81 80 87 99 110 116 122 131 139 143 145 145 147 150 149 138 126 123 125 129 130 136 145 148 144 142 143 149 143 140 134 132 143 140
100 118 120 120 115 111 109 98 97 99 94 95 99 103 110 120 132 139 143 147 150 153 157 161 152 146 147 149 150 153 161 166 163 157 155 156 160 156 154 150 151 161 153
85 37 102 120 115 115 106 108 113 110 107 109 113 114 117 119 124 127 135 146 156 159 165 170 164 163 170 171 175 179 185 190 186 180 177 174 177 176 171 167 164 165 164
100 126 129 113 121 120 109 111 119 120 124 125 127 128 128 133 139 143 147 158 171 177 181 185 188 187 192 198 198 201 201 201 203 201 195 202 201 189 179 181 178 177 176
73 54 56 87 95 112 121 130 134 138 146 152 155 156 157 159 163 166 171 180 190 198 208 217 216 211 213 219 219 218 218 213 213 216 211 219 220 206 205 201 192 190 190
63 79 90 74 60 79 117 122 133 151 166 172 173 177 178 182 185 190 189 192 200 207 215 219 220 224 221 217 220 227 233 232 231 228 223 225 224 228 211 213 207 202 201
70 72 67 57 56 65 78 92 115 113 287 230 218 218 211 203 200 204 208 216 226 231 233 235 235 232 233 232 223 220 223 230 227 232 238 236 233 225 224 220 218 211 207
73 56 53 65 71 64 48 45 40 83 256 278 284 268 260 256 250 242 237 231 233 238 243 244 246 246 245 245 246 240 236 237 241 228 232 234 234 236 234 230 220 215 214
52 53 31 20 19 30 38 35 12 360 300 288 284 282 276 269 260 257 257 255 255 251 248 244 246 248 250 252 252 248 241 242 238 238 248 248 250 248 245 239 228 220 217
57 50 31 29 22 37 33 24 15 358 342 320 299 290 280 273 271 266 264 263 264 262 261 261 256 252 250 252 256 259 258 255 248 235 234 238 245 248 251 247 234 225 219
52 47 42 45 42 31 39 33 34 6 3 353 340 324 310 287 276 278 274 273 272 271 269 266 261 257 255 250 247 247 254 249 240 245 239 244 247 250 249 245 238 227 222
48 40 45 46 44 42 44 33 31 14 0 7 359 331 307 291 285 290 286 285 281 274 268 263 262 259 258 256 253 253 247 240 229 245 245 243 246 248 253 248 239 226 222
84 56 47 63 54 59 55 47 41 31 20 11 1 348 327 318 287 284 283 283 272 274 269 267 263 256 252 246 249 241 239 241 245 245 251 246 240 244 250 248 241 227 223
126 118 86 55 61 50 50 36 23 24 18 15 354 354 354 348 341 323 307 297 280 280 272 269 266 258 247 248 246 247 236 236 243 246 246 246 240 240 248 245 240 232 225
118 122 99 86 71 52 48 27 26 16 18 359 4 358 8 3 355 338 326 310 305 305 291 286 275 267 261 251 246 242 240 235 249 253 255 247 240 234 243 248 242 239 230
156 170 163 108 80 53 57 36 3 349 347 6 358 351 354 359 351 346 327 326 317 307 300 289 281 274 265 257 253 241 242 233 236 241 247 252 240 237 240 243 242 243 235
195 172 189 188 189 211 227 286 311 315 336 340 336 344 345 353 349 345 331 331 321 320 302 291 285 273 267 260 253 251 245 247 246 242 242 248 252 240 237 239 236 238 234
187 187 193 195 193 210 213 234 258 279 301 305 316 318 317 318 321 335 324 310 305 307 308 309 308 308 288 267 260 252 242 235 243 245 244 240 247 249 245 242 237 234 225
207 194 202 199 205 211 220 225 242 259 266 274 292 298 306 312 303 283 292 295 306 304 301 300 303 296 299 290 277 262 246 236 234 245 242 238 242 246 246 254 238 230 226
238 242 246 224 226 224 237 270 276 270 260 246 261 274 284 293 300 311 300 288 288 290 294 290 289 288 274 280 281 270 256 239 234 234 245 250 245 240 239 243 248 242 234
249 248 246 247 247 223 231 257 274 252 274 283 272 283 285 277 280 287 283 292 292 282 281 280 287 291 287 257 282 264 247 233 226 232 233 240 238 239 228 228 231 238 244
233 234 252 244 254 236 193 225 236 250 270 262 280 293 296 295 294 292 279 284 278 279 273 267 266 286 274 248 251 268 279 262 235 228 223 229 237 241 238 237 233 233 238
234 237 256 255 251 247 241 329 321 306 306 317 301 299 300 310 301 292 286 271 270 258 264 259 256 258 268 279 251 239 264 239 241 226 227 222 230 224 236 243 236 234 235
249 257 274 304 266 14 31 357 321 279 282 270 286 289 289 287 286 290 287 281 279 272 265 255 246 249 243 264 288 245 246 262 268 259 258 237 195 201 208 211 221 224 230
353 348 13 74 51 36 34 29 355 319 283 290 293 294 288 291 285 279 277 282 284 276 268 255 261 247 243 247 250 263 272 250 234 244 253 230 258 228 220 230 234 232 240
43 51 53 66 46 25 18 4 350 319 309 307 304 299 297 298 296 289 283 278 278 279 267 264 257 250 242 244 252 251 245 254 218 221 234 244 230 214 211 215 228 222 187